| time (UTC) | temp C | wind direction | speed KPH | gust KPH | rain 1hr cm | rain 24hr cm | rain mn cm | humidity % | barometer mb |
| 20260906100626 | 14 | 272 | 0.0 | 3.2 | 0.00 | 0.00 | 0.00 | 90 | 1023.7 |
| 20260906100127 | 14 | 273 | 0.0 | 1.6 | 0.00 | 0.00 | 0.00 | 90 | 1023.8 |
| 20260906095624 | 14 | 272 | 0.0 | 3.2 | 0.00 | 0.00 | 0.00 | 90 | 1023.9 |
| 20260906095122 | 14 | 273 | 0.0 | 3.2 | 0.00 | 0.00 | 0.00 | 90 | 1023.9 |
| 20260906094624 | 14 | 273 | 0.0 | 3.2 | 0.00 | 0.00 | 0.00 | 90 | 1023.9 |
| 20260906094124 | 14 | 273 | 0.0 | 1.6 | 0.00 | 0.00 | 0.00 | 89 | 1023.9 |
| 20260906093620 | 14 | 272 | 0.0 | 3.2 | 0.00 | 0.00 | 0.00 | 89 | 1023.8 |
| 20260906093121 | 14 | 272 | 0.0 | 3.2 | 0.00 | 0.00 | 0.00 | 89 | 1023.6 |
| 20260906092616 | 14 | 272 | 0.0 | 3.2 | 0.00 | 0.00 | 0.00 | 89 | 1023.7 |
| 20260906092114 | 14 | 273 | 0.0 | 3.2 | 0.00 | 0.00 | 0.00 | 89 | 1023.7 |
| 20260906091614 | 14 | 273 | 0.0 | 3.2 | 0.00 | 0.00 | 0.00 | 89 | 1023.7 |
| 20260906091116 | 14 | 273 | 0.0 | 3.2 | 0.00 | 0.00 | 0.00 | 89 | 1023.6 |
| 20260906090614 | 14 | 273 | 0.0 | 3.2 | 0.00 | 0.00 | 0.00 | 89 | 1023.5 |
| 20260906090115 | 14 | 272 | 0.0 | 3.2 | 0.00 | 0.00 | 0.00 | 89 | 1023.6 |
| 20260906085612 | 14 | 272 | 0.0 | 0.0 | 0.00 | 0.00 | 0.00 | 89 | 1023.6 |
| 20260906085110 | 14 | 272 | 0.0 | 0.0 | 0.00 | 0.00 | 0.00 | 89 | 1023.7 |
| 20260906084612 | 14 | 273 | 0.0 | 0.0 | 0.00 | 0.00 | 0.00 | 89 | 1023.7 |
| 20260906084110 | 14 | 272 | 0.0 | 0.0 | 0.00 | 0.00 | 0.00 | 89 | 1023.7 |
| 20260906083608 | 14 | 273 | 0.0 | 1.6 | 0.00 | 0.00 | 0.00 | 89 | 1023.7 |
| 20260906083109 | 14 | 273 | 0.0 | 1.6 | 0.00 | 0.00 | 0.00 | 89 | 1023.7 |
| 20260906082602 | 14 | 273 | 0.0 | 1.6 | 0.00 | 0.00 | 0.00 | 89 | 1023.6 |
| 20260906082103 | 14 | 272 | 0.0 | 1.6 | 0.00 | 0.00 | 0.00 | 89 | 1023.6 |
| 20260906081602 | 14 | 272 | 0.0 | 1.6 | 0.00 | 0.00 | 0.00 | 89 | 1023.6 |
| 20260906081102 | 14 | 272 | 0.0 | 0.0 | 0.00 | 0.00 | 0.00 | 89 | 1023.6 |
| 20260906080603 | 14 | 273 | 0.0 | 0.0 | 0.00 | 0.00 | 0.00 | 88 | 1023.6 |
| 20260906080103 | 14 | 272 | 0.0 | 0.0 | 0.00 | 0.00 | 0.00 | 89 | 1023.6 |
| 20260906075556 | 14 | 273 | 0.0 | 3.2 | 0.00 | 0.00 | 0.00 | 89 | 1023.6 |
| 20260906075056 | 14 | 273 | 0.0 | 3.2 | 0.00 | 0.00 | 0.00 | 89 | 1023.7 |
| 20260906074557 | 14 | 272 | 0.0 | 1.6 | 0.00 | 0.00 | 0.00 | 89 | 1023.7 |
| 20260906074056 | 14 | 273 | 0.0 | 3.2 | 0.00 | 0.00 | 0.00 | 89 | 1023.7 |
| 20260906073556 | 14 | 272 | 0.0 | 3.2 | 0.00 | 0.00 | 0.00 | 89 | 1023.9 |
| 20260906073056 | 14 | 272 | 0.0 | 3.2 | 0.00 | 0.00 | 0.00 | 89 | 1023.8 |
| 20260906072552 | 14 | 272 | 0.0 | 0.0 | 0.00 | 0.00 | 0.00 | 88 | 1023.8 |
| 20260906072053 | 14 | 272 | 0.0 | 0.0 | 0.00 | 0.00 | 0.00 | 88 | 1023.8 |
| 20260906071550 | 14 | 272 | 0.0 | 0.0 | 0.00 | 0.00 | 0.00 | 88 | 1023.8 |
| 20260906071051 | 15 | 272 | 0.0 | 0.0 | 0.00 | 0.00 | 0.00 | 88 | 1023.7 |
| 20260906070550 | 15 | 273 | 0.0 | 0.0 | 0.00 | 0.00 | 0.00 | 88 | 1023.7 |
| 20260906070050 | 15 | 272 | 0.0 | 3.2 | 0.00 | 0.00 | 0.00 | 88 | 1023.8 |
| 20260906065547 | 15 | 272 | 0.0 | 3.2 | 0.00 | 0.00 | 0.00 | 88 | 1023.7 |
| 20260906065046 | 14 | 272 | 0.0 | 3.2 | 0.00 | 0.00 | 0.00 | 89 | 1023.7 |
| 20260906064547 | 14 | 272 | 0.0 | 3.2 | 0.00 | 0.00 | 0.00 | 89 | 1023.7 |
| 20260906064046 | 14 | 273 | 0.0 | 3.2 | 0.00 | 0.00 | 0.00 | 89 | 1023.8 |
| 20260906063544 | 14 | 272 | 0.0 | 3.2 | 0.00 | 0.00 | 0.00 | 89 | 1023.7 |
| 20260906063045 | 14 | 273 | 0.0 | 3.2 | 0.00 | 0.00 | 0.00 | 88 | 1023.6 |
| 20260906062539 | 14 | 272 | 0.0 | 3.2 | 0.00 | 0.00 | 0.00 | 89 | 1023.6 |
| 20260906062038 | 14 | 273 | 0.0 | 4.8 | 0.00 | 0.00 | 0.00 | 89 | 1023.9 |
| 20260906061538 | 14 | 272 | 0.0 | 4.8 | 0.00 | 0.00 | 0.00 | 89 | 1023.7 |
| 20260906061044 | 13 | 271 | 0.0 | 3.2 | 0.00 | 0.00 | 0.00 | 89 | 1023.9 |
| 20260906060538 | 13 | 273 | 0.0 | 3.2 | 0.00 | 0.00 | 0.00 | 89 | 1024.0 |
| 20260906060039 | 13 | 272 | 0.0 | 0.0 | 0.00 | 0.00 | 0.00 | 89 | 1024.1 |
| 20260906055537 | 13 | 272 | 0.0 | 0.0 | 0.00 | 0.00 | 0.00 | 88 | 1024.1 |
| 20260906055036 | 13 | 272 | 0.0 | 0.0 | 0.00 | 0.00 | 0.00 | 88 | 1024.1 |
| 20260906054537 | 14 | 272 | 0.0 | 0.0 | 0.00 | 0.00 | 0.00 | 88 | 1024.2 |
| 20260906054034 | 14 | 272 | 0.0 | 0.0 | 0.00 | 0.00 | 0.00 | 88 | 1024.1 |
| 20260906053532 | 14 | 272 | 0.0 | 0.0 | 0.00 | 0.00 | 0.00 | 88 | 1024.1 |
| 20260906053032 | 14 | 272 | 0.0 | 0.0 | 0.00 | 0.00 | 0.00 | 87 | 1024.1 |
| 20260906052530 | 14 | 272 | 0.0 | 0.0 | 0.00 | 0.00 | 0.00 | 87 | 1024.1 |
| 20260906052034 | 14 | 272 | 0.0 | 0.0 | 0.00 | 0.00 | 0.00 | 87 | 1024.2 |
| 20260906051529 | 14 | 272 | 0.0 | 0.0 | 0.00 | 0.00 | 0.00 | 87 | 1024.2 |
| 20260906051029 | 15 | 271 | 0.0 | 0.0 | 0.00 | 0.00 | 0.00 | 87 | 1024.1 |
| 20260906050526 | 15 | 272 | 0.0 | 0.0 | 0.00 | 0.00 | 0.00 | 87 | 1024.1 |
| 20260906050026 | 15 | 272 | 0.0 | 0.0 | 0.00 | 0.00 | 0.00 | 87 | 1024.1 |
| 20260906045524 | 15 | 272 | 0.0 | 0.0 | 0.00 | 0.00 | 0.00 | 87 | 1024.1 |
| 20260906045024 | 15 | 272 | 0.0 | 0.0 | 0.00 | 0.00 | 0.00 | 86 | 1024.2 |
| 20260906044525 | 15 | 272 | 0.0 | 0.0 | 0.00 | 0.00 | 0.00 | 86 | 1024.2 |
| 20260906044022 | 15 | 272 | 0.0 | 0.0 | 0.00 | 0.00 | 0.00 | 86 | 1024.2 |
| 20260906043520 | 15 | 272 | 0.0 | 1.6 | 0.00 | 0.00 | 0.00 | 86 | 1024.2 |
| 20260906043020 | 15 | 273 | 0.0 | 1.6 | 0.00 | 0.00 | 0.00 | 86 | 1024.3 |
| 20260906042515 | 15 | 272 | 0.0 | 3.2 | 0.00 | 0.00 | 0.00 | 86 | 1024.3 |
| 20260906042013 | 15 | 272 | 0.0 | 3.2 | 0.00 | 0.00 | 0.00 | 85 | 1024.3 |
| 20260906041510 | 16 | 272 | 1.6 | 4.8 | 0.00 | 0.00 | 0.00 | 85 | 1024.3 |
| 20260906041008 | 16 | 272 | 1.6 | 4.8 | 0.00 | 0.00 | 0.00 | 85 | 1024.2 |
| 20260906040509 | 16 | 272 | 1.6 | 3.2 | 0.00 | 0.00 | 0.00 | 85 | 1024.3 |
| 20260906040002 | 16 | 272 | 1.6 | 6.4 | 0.00 | 0.00 | 0.00 | 85 | 1024.3 |
| 20260906035501 | 16 | 273 | 1.6 | 6.4 | 0.00 | 0.00 | 0.00 | 85 | 1024.3 |
| 20260906034958 | 16 | 270 | 1.6 | 3.2 | 0.00 | 0.00 | 0.00 | 84 | 1024.3 |
| 20260906034455 | 16 | 270 | 1.6 | 3.2 | 0.00 | 0.00 | 0.00 | 84 | 1024.2 |
| 20260906033956 | 16 | 270 | 1.6 | 4.8 | 0.00 | 0.00 | 0.00 | 84 | 1024.1 |
| 20260906033452 | 16 | 271 | 1.6 | 4.8 | 0.00 | 0.00 | 0.00 | 83 | 1024.0 |
| 20260906032950 | 16 | 270 | 1.6 | 4.8 | 0.00 | 0.00 | 0.00 | 83 | 1024.1 |
| 20260906032449 | 16 | 270 | 1.6 | 6.4 | 0.00 | 0.00 | 0.00 | 83 | 1023.9 |
| 20260906031950 | 17 | 269 | 1.6 | 6.4 | 0.00 | 0.00 | 0.00 | 83 | 1023.9 |
| 20260906031449 | 17 | 271 | 1.6 | 4.8 | 0.00 | 0.00 | 0.00 | 82 | 1024.1 |
| 20260906030950 | 17 | 271 | 3.2 | 9.7 | 0.00 | 0.00 | 0.00 | 82 | 1024.0 |
| 20260906030446 | 17 | 268 | 3.2 | 9.7 | 0.00 | 0.00 | 0.00 | 82 | 1024.0 |
| 20260906025944 | 17 | 226 | 1.6 | 9.7 | 0.00 | 0.00 | 0.00 | 82 | 1024.0 |
| 20260906025444 | 17 | 271 | 1.6 | 6.4 | 0.00 | 0.00 | 0.00 | 81 | 1024.0 |
| 20260906024943 | 17 | 281 | 1.6 | 6.4 | 0.00 | 0.00 | 0.00 | 81 | 1024.0 |
| 20260906024444 | 17 | 239 | 3.2 | 9.7 | 0.00 | 0.00 | 0.00 | 81 | 1024.0 |
| 20260906023945 | 18 | 27 | 3.2 | 9.7 | 0.00 | 0.00 | 0.00 | 80 | 1024.0 |
| 20260906023439 | 18 | 257 | 3.2 | 8.0 | 0.00 | 0.00 | 0.00 | 80 | 1024.0 |
| 20260906022938 | 18 | 277 | 3.2 | 6.4 | 0.00 | 0.00 | 0.00 | 79 | 1023.9 |
| 20260906022438 | 18 | 298 | 3.2 | 9.7 | 0.00 | 0.00 | 0.00 | 78 | 1023.9 |
| 20260906021938 | 18 | 306 | 3.2 | 9.7 | 0.00 | 0.00 | 0.00 | 78 | 1023.7 |
| 20260906021437 | 18 | 256 | 3.2 | 8.0 | 0.00 | 0.00 | 0.00 | 77 | 1023.8 |
| 20260906020939 | 18 | 257 | 4.8 | 12.9 | 0.00 | 0.00 | 0.00 | 76 | 1023.8 |
| 20260906020433 | 18 | 340 | 4.8 | 14.5 | 0.00 | 0.00 | 0.00 | 75 | 1023.7 |
| 20260906015931 | 18 | 287 | 4.8 | 14.5 | 0.00 | 0.00 | 0.00 | 75 | 1023.7 |
| 20260906015432 | 18 | 245 | 4.8 | 9.7 | 0.00 | 0.00 | 0.00 | 74 | 1023.8 |
| 20260906014932 | 19 | 327 | 4.8 | 12.9 | 0.00 | 0.00 | 0.00 | 74 | 1023.8 |
| 20260906014432 | 19 | 286 | 4.8 | 12.9 | 0.00 | 0.00 | 0.00 | 73 | 1023.8 |
| 20260906013932 | 19 | 250 | 4.8 | 14.5 | 0.00 | 0.00 | 0.00 | 73 | 1023.9 |
| 20260906013430 | 19 | 0 | 4.8 | 14.5 | 0.00 | 0.00 | 0.00 | 73 | 1023.9 |
| 20260906012929 | 19 | 277 | 4.8 | 12.9 | 0.00 | 0.00 | 0.00 | 73 | 1024.0 |
| 20260906012431 | 19 | 302 | 6.4 | 12.9 | 0.00 | 0.00 | 0.00 | 72 | 1023.9 |
| 20260906011928 | 20 | 260 | 4.8 | 12.9 | 0.00 | 0.00 | 0.00 | 72 | 1024.0 |
| 20260906011426 | 20 | 252 | 4.8 | 12.9 | 0.00 | 0.00 | 0.00 | 71 | 1024.0 |
| 20260906010927 | 20 | 261 | 4.8 | 14.5 | 0.00 | 0.00 | 0.00 | 71 | 1024.1 |
| 20260906010424 | 20 | 282 | 4.8 | 14.5 | 0.00 | 0.00 | 0.00 | 69 | 1024.0 |
| 20260906005924 | 21 | 250 | 4.8 | 8.0 | 0.00 | 0.00 | 0.00 | 69 | 1023.9 |
| 20260906005425 | 21 | 275 | 4.8 | 12.9 | 0.00 | 0.00 | 0.00 | 67 | 1024.0 |
| 20260906004921 | 21 | 297 | 4.8 | 12.9 | 0.00 | 0.00 | 0.00 | 68 | 1024.0 |
| 20260906004419 | 21 | 304 | 4.8 | 9.7 | 0.00 | 0.00 | 0.00 | 67 | 1024.0 |
| 20260906003920 | 21 | 266 | 3.2 | 9.7 | 0.00 | 0.00 | 0.00 | 66 | 1023.9 |
| 20260906003414 | 21 | 265 | 3.2 | 8.0 | 0.00 | 0.00 | 0.00 | 65 | 1023.9 |
| 20260906002913 | 21 | 280 | 3.2 | 11.3 | 0.00 | 0.00 | 0.00 | 64 | 1024.0 |
| 20260906002413 | 21 | 236 | 4.8 | 11.3 | 0.00 | 0.00 | 0.00 | 63 | 1023.9 |
| 20260906001913 | 21 | 229 | 4.8 | 9.7 | 0.00 | 0.00 | 0.00 | 62 | 1023.9 |
| 20260906001413 | 22 | 280 | 4.8 | 11.3 | 0.00 | 0.00 | 0.00 | 62 | 1023.8 |
| 20260906000914 | 22 | 268 | 4.8 | 11.3 | 0.00 | 0.00 | 0.00 | 62 | 1023.9 |
| 20260906000410 | 22 | 313 | 4.8 | 12.9 | 0.00 | 0.00 | 0.00 | 62 | 1023.9 |
| 20260905235907 | 22 | 327 | 3.2 | 12.9 | 0.00 | 0.00 | 0.00 | 63 | 1023.7 |
| 20260905235405 | 22 | 274 | 3.2 | 9.7 | 0.00 | 0.00 | 0.00 | 63 | 1023.6 |
| 20260905234906 | 21 | 329 | 3.2 | 9.7 | 0.00 | 0.00 | 0.00 | 65 | 1023.8 |
| 20260905234404 | 21 | 300 | 4.8 | 8.0 | 0.00 | 0.00 | 0.00 | 64 | 1023.9 |
| 20260905233902 | 22 | 232 | 4.8 | 9.7 | 0.00 | 0.00 | 0.00 | 64 | 1023.9 |
| 20260905233401 | 22 | 252 | 4.8 | 9.7 | 0.00 | 0.00 | 0.00 | 63 | 1023.9 |
| 20260905232902 | 22 | 291 | 3.2 | 9.7 | 0.00 | 0.00 | 0.00 | 65 | 1023.9 |
| 20260905232359 | 22 | 319 | 3.2 | 9.7 | 0.00 | 0.00 | 0.00 | 64 | 1023.9 |
| 20260905231859 | 22 | 204 | 4.8 | 11.3 | 0.00 | 0.00 | 0.00 | 65 | 1023.9 |
| 20260905231401 | 21 | 336 | 4.8 | 11.3 | 0.00 | 0.00 | 0.00 | 65 | 1024.0 |
| 20260905230900 | 21 | 275 | 4.8 | 11.3 | 0.00 | 0.00 | 0.00 | 65 | 1023.9 |
| 20260905230359 | 22 | 254 | 6.4 | 11.3 | 0.00 | 0.00 | 0.00 | 65 | 1024.0 |
| 20260905225858 | 22 | 210 | 4.8 | 11.3 | 0.00 | 0.00 | 0.00 | 65 | 1024.1 |
| 20260905225357 | 22 | 227 | 3.2 | 11.3 | 0.00 | 0.00 | 0.00 | 66 | 1024.2 |
| 20260905224857 | 22 | 271 | 3.2 | 11.3 | 0.00 | 0.00 | 0.00 | 65 | 1024.3 |
| 20260905224358 | 22 | 285 | 4.8 | 11.3 | 0.00 | 0.00 | 0.00 | 64 | 1024.3 |
| 20260905223853 | 22 | 331 | 4.8 | 14.5 | 0.00 | 0.03 | 0.00 | 65 | 1024.3 |
| 20260905223354 | 22 | 279 | 4.8 | 14.5 | 0.00 | 0.03 | 0.00 | 65 | 1024.2 |
| 20260905222853 | 22 | 281 | 4.8 | 11.3 | 0.00 | 0.03 | 0.00 | 64 | 1024.3 |
| 20260905222353 | 22 | 311 | 4.8 | 12.9 | 0.00 | 0.03 | 0.00 | 67 | 1024.4 |
| 20260905221854 | 22 | 350 | 3.2 | 12.9 | 0.00 | 0.03 | 0.00 | 64 | 1024.5 |
| 20260905221354 | 22 | 46 | 3.2 | 8.0 | 0.00 | 0.03 | 0.00 | 65 | 1024.5 |
| 20260905220849 | 22 | 319 | 3.2 | 8.0 | 0.00 | 0.03 | 0.00 | 64 | 1024.5 |
| 20260905220349 | 22 | 355 | 3.2 | 12.9 | 0.00 | 0.03 | 0.00 | 65 | 1024.5 |
| 20260905215850 | 22 | 302 | 3.2 | 12.9 | 0.00 | 0.03 | 0.00 | 64 | 1024.5 |
| 20260905215349 | 22 | 55 | 3.2 | 11.3 | 0.00 | 0.05 | 0.00 | 65 | 1024.5 |
| 20260905214849 | 22 | 87 | 3.2 | 11.3 | 0.00 | 0.05 | 0.00 | 65 | 1024.5 |
| 20260905214351 | 22 | 30 | 3.2 | 8.0 | 0.00 | 0.08 | 0.00 | 65 | 1024.5 |
| 20260905213845 | 22 | 45 | 3.2 | 8.0 | 0.00 | 0.08 | 0.00 | 63 | 1024.5 |
| 20260905213346 | 22 | 77 | 3.2 | 8.0 | 0.00 | 0.10 | 0.00 | 66 | 1024.6 |
| 20260905212845 | 21 | 276 | 3.2 | 8.0 | 0.00 | 0.10 | 0.00 | 66 | 1024.6 |
| 20260905212346 | 21 | 200 | 3.2 | 9.7 | 0.00 | 0.10 | 0.00 | 67 | 1024.7 |
| 20260905211846 | 21 | 272 | 6.4 | 12.9 | 0.00 | 0.10 | 0.00 | 68 | 1024.8 |
| 20260905211346 | 21 | 232 | 6.4 | 14.5 | 0.00 | 0.10 | 0.00 | 68 | 1024.8 |
| 20260905210844 | 21 | 242 | 6.4 | 14.5 | 0.00 | 0.10 | 0.00 | 69 | 1024.8 |
| 20260905210344 | 21 | 265 | 4.8 | 12.9 | 0.00 | 0.10 | 0.00 | 69 | 1024.8 |
| 20260905205844 | 21 | 254 | 3.2 | 12.9 | 0.00 | 0.10 | 0.00 | 69 | 1024.9 |
| 20260905205343 | 20 | 157 | 3.2 | 11.3 | 0.00 | 0.10 | 0.00 | 68 | 1024.8 |
| 20260905204844 | 20 | 214 | 3.2 | 11.3 | 0.00 | 0.10 | 0.00 | 71 | 1024.8 |
| 20260905204343 | 20 | 310 | 3.2 | 9.7 | 0.00 | 0.10 | 0.00 | 67 | 1024.9 |
| 20260905203843 | 20 | 156 | 3.2 | 8.0 | 0.00 | 0.10 | 0.00 | 69 | 1024.9 |
| 20260905203341 | 20 | 213 | 3.2 | 8.0 | 0.00 | 0.10 | 0.00 | 72 | 1025.0 |
| 20260905202841 | 20 | 262 | 1.6 | 6.4 | 0.00 | 0.10 | 0.00 | 70 | 1025.0 |
| 20260905202341 | 20 | 326 | 3.2 | 8.0 | 0.00 | 0.10 | 0.00 | 70 | 1025.0 |
| 20260905201839 | 20 | 315 | 3.2 | 8.0 | 0.00 | 0.10 | 0.00 | 71 | 1025.0 |
| 20260905201337 | 20 | 327 | 3.2 | 9.7 | 0.00 | 0.10 | 0.00 | 70 | 1025.1 |
| 20260905200838 | 20 | 0 | 3.2 | 9.7 | 0.00 | 0.10 | 0.00 | 70 | 1025.2 |
| 20260905200333 | 20 | 301 | 3.2 | 9.7 | 0.00 | 0.10 | 0.00 | 70 | 1025.2 |
| 20260905195833 | 20 | 45 | 4.8 | 11.3 | 0.00 | 0.10 | 0.00 | 71 | 1025.1 |
| 20260905195331 | 21 | 25 | 3.2 | 11.3 | 0.00 | 0.10 | 0.00 | 71 | 1025.1 |
| 20260905194831 | 21 | 313 | 1.6 | 4.8 | 0.00 | 0.10 | 0.00 | 70 | 1025.2 |
| 20260905194332 | 20 | 116 | 1.6 | 4.8 | 0.00 | 0.13 | 0.00 | 75 | 1025.3 |
| 20260905193832 | 20 | 192 | 1.6 | 8.0 | 0.00 | 0.13 | 0.00 | 70 | 1025.4 |
| 20260905193329 | 20 | 190 | 3.2 | 9.7 | 0.00 | 0.13 | 0.00 | 72 | 1025.5 |
| 20260905192827 | 20 | 192 | 1.6 | 9.7 | 0.00 | 0.13 | 0.00 | 73 | 1025.6 |
| 20260905192329 | 20 | 126 | 1.6 | 6.4 | 0.00 | 0.13 | 0.00 | 75 | 1025.7 |
| 20260905191827 | 20 | 69 | 1.6 | 4.8 | 0.00 | 0.13 | 0.00 | 76 | 1025.6 |
| 20260905191325 | 19 | 52 | 1.6 | 4.8 | 0.00 | 0.13 | 0.00 | 77 | 1025.7 |
| 20260905190825 | 19 | 48 | 1.6 | 4.8 | 0.00 | 0.13 | 0.00 | 76 | 1025.8 |
| 20260905190320 | 18 | 217 | 1.6 | 6.4 | 0.00 | 0.13 | 0.00 | 78 | 1025.7 |
| 20260905185819 | 18 | 221 | 1.6 | 6.4 | 0.00 | 0.13 | 0.00 | 77 | 1025.8 |
| 20260905185318 | 18 | 180 | 1.6 | 8.0 | 0.00 | 0.13 | 0.00 | 79 | 1025.9 |
| 20260905184819 | 18 | 188 | 1.6 | 8.0 | 0.00 | 0.13 | 0.00 | 80 | 1025.8 |
| 20260905184319 | 18 | 214 | 1.6 | 8.0 | 0.00 | 0.13 | 0.00 | 80 | 1025.9 |
| 20260905183820 | 17 | 146 | 1.6 | 6.4 | 0.00 | 0.13 | 0.00 | 81 | 1025.9 |
| 20260905183314 | 17 | 61 | 3.2 | 6.4 | 0.00 | 0.13 | 0.00 | 81 | 1025.9 |
| 20260905182812 | 17 | 128 | 1.6 | 6.4 | 0.00 | 0.13 | 0.00 | 84 | 1025.9 |
| 20260905182313 | 17 | 203 | 1.6 | 6.4 | 0.00 | 0.13 | 0.00 | 83 | 1025.9 |
| 20260905181814 | 17 | 259 | 1.6 | 6.4 | 0.00 | 0.13 | 0.00 | 84 | 1025.9 |
| 20260905181313 | 17 | 224 | 0.0 | 1.6 | 0.00 | 0.13 | 0.00 | 85 | 1025.9 |
| 20260905180814 | 16 | 225 | 0.0 | 3.2 | 0.00 | 0.13 | 0.00 | 85 | 1025.9 |
| 20260905180310 | 16 | 225 | 1.6 | 4.8 | 0.00 | 0.13 | 0.00 | 84 | 1025.9 |
| 20260905175809 | 16 | 225 | 1.6 | 4.8 | 0.00 | 0.13 | 0.00 | 85 | 1025.9 |
| 20260905175307 | 16 | 232 | 0.0 | 4.8 | 0.00 | 0.13 | 0.00 | 86 | 1025.9 |
| 20260905174807 | 16 | 232 | 0.0 | 4.8 | 0.00 | 0.13 | 0.00 | 85 | 1025.9 |
| 20260905174307 | 16 | 167 | 0.0 | 3.2 | 0.00 | 0.13 | 0.00 | 86 | 1025.9 |
| 20260905173806 | 16 | 68 | 0.0 | 1.6 | 0.00 | 0.13 | 0.00 | 87 | 1025.9 |
| 20260905173304 | 16 | 69 | 0.0 | 1.6 | 0.00 | 0.13 | 0.00 | 86 | 1026.0 |
| 20260905172804 | 16 | 69 | 0.0 | 1.6 | 0.00 | 0.13 | 0.00 | 87 | 1026.0 |
| 20260905172305 | 16 | 70 | 0.0 | 1.6 | 0.00 | 0.13 | 0.00 | 87 | 1025.9 |
| 20260905171803 | 15 | 69 | 0.0 | 1.6 | 0.00 | 0.13 | 0.00 | 87 | 1025.9 |
| 20260905171301 | 15 | 69 | 0.0 | 1.6 | 0.00 | 0.13 | 0.00 | 87 | 1025.9 |
| 20260905170801 | 15 | 69 | 0.0 | 1.6 | 0.00 | 0.13 | 0.00 | 87 | 1025.9 |
| 20260905170255 | 15 | 69 | 0.0 | 1.6 | 0.00 | 0.13 | 0.00 | 87 | 1025.8 |
| 20260905165754 | 15 | 69 | 0.0 | 3.2 | 0.00 | 0.13 | 0.00 | 88 | 1025.9 |
| 20260905165251 | 15 | 69 | 0.0 | 3.2 | 0.00 | 0.13 | 0.00 | 88 | 1025.8 |
| 20260905164748 | 15 | 66 | 0.0 | 1.6 | 0.00 | 0.13 | 0.00 | 88 | 1025.8 |
| 20260905164249 | 15 | 67 | 0.0 | 3.2 | 0.00 | 0.13 | 0.00 | 88 | 1025.8 |
| 20260905163745 | 15 | 65 | 0.0 | 3.2 | 0.00 | 0.13 | 0.00 | 88 | 1025.8 |
| 20260905163244 | 15 | 131 | 0.0 | 1.6 | 0.00 | 0.13 | 0.00 | 88 | 1025.7 |
| 20260905162746 | 15 | 131 | 0.0 | 1.6 | 0.00 | 0.13 | 0.00 | 88 | 1025.8 |
| 20260905162245 | 15 | 130 | 0.0 | 1.6 | 0.00 | 0.13 | 0.00 | 88 | 1025.8 |
| 20260905161743 | 15 | 130 | 0.0 | 3.2 | 0.00 | 0.13 | 0.00 | 89 | 1025.9 |
| 20260905161244 | 15 | 131 | 0.0 | 3.2 | 0.00 | 0.13 | 0.00 | 89 | 1025.9 |
| 20260905160739 | 14 | 111 | 0.0 | 3.2 | 0.00 | 0.13 | 0.00 | 89 | 1025.9 |
| 20260905160239 | 14 | 109 | 0.0 | 3.2 | 0.00 | 0.13 | 0.00 | 89 | 1025.9 |
| 20260905155737 | 14 | 111 | 0.0 | 3.2 | 0.00 | 0.13 | 0.00 | 90 | 1026.0 |
| 20260905155236 | 14 | 102 | 0.0 | 4.8 | 0.00 | 0.13 | 0.00 | 89 | 1026.0 |
| 20260905154735 | 14 | 104 | 0.0 | 4.8 | 0.00 | 0.13 | 0.00 | 90 | 1025.9 |
| 20260905154235 | 13 | 118 | 0.0 | 4.8 | 0.00 | 0.13 | 0.00 | 90 | 1025.9 |
| 20260905153732 | 13 | 119 | 0.0 | 6.4 | 0.00 | 0.13 | 0.00 | 90 | 1025.9 |
| 20260905153233 | 13 | 119 | 0.0 | 6.4 | 0.00 | 0.13 | 0.00 | 90 | 1025.8 |
| 20260905152734 | 13 | 101 | 0.0 | 4.8 | 0.00 | 0.13 | 0.00 | 90 | 1025.7 |
| 20260905152231 | 13 | 104 | 0.0 | 4.8 | 0.00 | 0.13 | 0.00 | 90 | 1025.8 |
| 20260905151728 | 13 | 84 | 0.0 | 3.2 | 0.00 | 0.13 | 0.00 | 90 | 1025.7 |
| 20260905151228 | 13 | 78 | 0.0 | 3.2 | 0.00 | 0.13 | 0.00 | 91 | 1025.7 |
| 20260905150726 | 13 | 78 | 0.0 | 3.2 | 0.00 | 0.13 | 0.00 | 91 | 1025.7 |
| 20260905150225 | 13 | 78 | 0.0 | 3.2 | 0.00 | 0.13 | 0.00 | 91 | 1025.8 |
| 20260905145725 | 13 | 78 | 1.6 | 3.2 | 0.00 | 0.13 | 0.00 | 91 | 1025.8 |
| 20260905145224 | 13 | 79 | 1.6 | 4.8 | 0.00 | 0.15 | 0.00 | 92 | 1025.8 |
| 20260905144726 | 13 | 78 | 1.6 | 6.4 | 0.00 | 0.15 | 0.00 | 92 | 1025.8 |
| 20260905144224 | 13 | 79 | 1.6 | 6.4 | 0.00 | 0.18 | 0.00 | 91 | 1025.8 |
| 20260905143726 | 12 | 104 | 1.6 | 6.4 | 0.00 | 0.18 | 0.00 | 91 | 1025.8 |
| 20260905143222 | 12 | 104 | 0.0 | 6.4 | 0.00 | 0.18 | 0.00 | 92 | 1025.8 |
| 20260905142721 | 12 | 91 | 0.0 | 3.2 | 0.00 | 0.18 | 0.00 | 92 | 1025.9 |
| 20260905142220 | 12 | 90 | 0.0 | 3.2 | 0.00 | 0.18 | 0.00 | 92 | 1025.9 |
| 20260905141721 | 12 | 90 | 0.0 | 0.0 | 0.00 | 0.18 | 0.00 | 92 | 1025.8 |
| 20260905141220 | 12 | 91 | 0.0 | 0.0 | 0.00 | 0.18 | 0.00 | 92 | 1025.8 |
| 20260905140720 | 12 | 91 | 0.0 | 0.0 | 0.00 | 0.18 | 0.00 | 91 | 1025.8 |
| 20260905140222 | 12 | 91 | 0.0 | 0.0 | 0.00 | 0.20 | 0.00 | 91 | 1025.8 |
| 20260905135716 | 12 | 91 | 0.0 | 0.0 | 0.00 | 0.20 | 0.00 | 91 | 1025.8 |
| 20260905135214 | 12 | 90 | 0.0 | 0.0 | 0.00 | 0.20 | 0.00 | 91 | 1025.8 |
| 20260905134714 | 12 | 91 | 0.0 | 0.0 | 0.00 | 0.20 | 0.00 | 91 | 1025.7 |
| 20260905134215 | 12 | 90 | 0.0 | 0.0 | 0.00 | 0.20 | 0.00 | 91 | 1025.7 |
| 20260905133715 | 12 | 91 | 0.0 | 0.0 | 0.00 | 0.23 | 0.00 | 91 | 1025.7 |
| 20260905133214 | 12 | 91 | 0.0 | 0.0 | 0.00 | 0.23 | 0.00 | 91 | 1025.7 |
| 20260905132715 | 12 | 90 | 0.0 | 0.0 | 0.00 | 0.23 | 0.00 | 91 | 1025.6 |
| 20260905132213 | 12 | 90 | 0.0 | 0.0 | 0.00 | 0.23 | 0.00 | 91 | 1025.6 |
| 20260905131712 | 12 | 91 | 0.0 | 0.0 | 0.00 | 0.23 | 0.00 | 91 | 1025.6 |
| 20260905131214 | 12 | 90 | 0.0 | 0.0 | 0.00 | 0.23 | 0.00 | 91 | 1025.6 |
| 20260905130712 | 12 | 90 | 0.0 | 0.0 | 0.00 | 0.23 | 0.00 | 91 | 1025.6 |
| 20260905130213 | 12 | 91 | 0.0 | 0.0 | 0.00 | 0.23 | 0.00 | 91 | 1025.4 |
| 20260905125713 | 12 | 91 | 0.0 | 0.0 | 0.00 | 0.23 | 0.00 | 91 | 1025.5 |
| 20260905125207 | 12 | 90 | 0.0 | 0.0 | 0.00 | 0.23 | 0.00 | 91 | 1025.5 |
| 20260905124700 | 12 | 91 | 0.0 | 1.6 | 0.00 | 0.23 | 0.00 | 91 | 1025.4 |
| 20260905124156 | 12 | 90 | 0.0 | 1.6 | 0.00 | 0.23 | 0.00 | 91 | 1025.4 |
| 20260905123658 | 12 | 90 | 0.0 | 0.0 | 0.00 | 0.23 | 0.00 | 91 | 1025.3 |
| 20260905123156 | 12 | 91 | 0.0 | 0.0 | 0.00 | 0.23 | 0.00 | 91 | 1025.3 |
| 20260905122657 | 12 | 91 | 0.0 | 0.0 | 0.00 | 0.23 | 0.00 | 91 | 1025.2 |
| 20260905122157 | 12 | 91 | 0.0 | 0.0 | 0.00 | 0.23 | 0.00 | 91 | 1025.0 |
| 20260905121657 | 12 | 90 | 0.0 | 0.0 | 0.00 | 0.23 | 0.00 | 91 | 1025.0 |
| 20260905121153 | 12 | 91 | 0.0 | 0.0 | 0.00 | 0.23 | 0.00 | 91 | 1025.1 |
| 20260905120652 | 12 | 90 | 0.0 | 0.0 | 0.00 | 0.23 | 0.00 | 91 | 1025.0 |
| 20260905120153 | 12 | 90 | 0.0 | 0.0 | 0.00 | 0.23 | 0.00 | 91 | 1025.1 |
| 20260905115652 | 12 | 91 | 0.0 | 0.0 | 0.00 | 0.23 | 0.00 | 91 | 1025.1 |
| 20260905115152 | 12 | 91 | 0.0 | 0.0 | 0.00 | 0.23 | 0.00 | 91 | 1025.1 |
| 20260905114653 | 12 | 90 | 0.0 | 1.6 | 0.00 | 0.23 | 0.00 | 91 | 1025.0 |
| 20260905114148 | 12 | 91 | 0.0 | 1.6 | 0.00 | 0.23 | 0.00 | 91 | 1025.0 |
| 20260905113650 | 12 | 90 | 0.0 | 0.0 | 0.00 | 0.23 | 0.00 | 91 | 1025.0 |
| 20260905113148 | 12 | 91 | 0.0 | 0.0 | 0.00 | 0.23 | 0.00 | 91 | 1025.1 |
| 20260905112648 | 12 | 91 | 0.0 | 1.6 | 0.00 | 0.23 | 0.00 | 91 | 1025.1 |
| 20260905112147 | 12 | 91 | 0.0 | 1.6 | 0.00 | 0.23 | 0.00 | 91 | 1025.0 |
| 20260905111646 | 12 | 91 | 0.0 | 1.6 | 0.00 | 0.23 | 0.00 | 91 | 1025.0 |
| 20260905111146 | 12 | 90 | 0.0 | 1.6 | 0.00 | 0.23 | 0.00 | 91 | 1024.9 |
| 20260905110646 | 12 | 90 | 0.0 | 0.0 | 0.00 | 0.23 | 0.00 | 92 | 1025.0 |
| 20260905110147 | 12 | 90 | 0.0 | 0.0 | 0.00 | 0.23 | 0.00 | 92 | 1025.1 |
| 20260905105646 | 12 | 90 | 0.0 | 1.6 | 0.00 | 0.23 | 0.00 | 92 | 1025.1 |
| 20260905105147 | 12 | 90 | 0.0 | 1.6 | 0.00 | 0.23 | 0.00 | 92 | 1025.1 |
| 20260905104642 | 12 | 90 | 0.0 | 1.6 | 0.00 | 0.23 | 0.00 | 92 | 1025.2 |
| 20260905104139 | 12 | 91 | 0.0 | 1.6 | 0.00 | 0.23 | 0.00 | 92 | 1025.1 |
| 20260905103636 | 12 | 90 | 0.0 | 1.6 | 0.00 | 0.23 | 0.00 | 92 | 1025.2 |
| 20260905103135 | 12 | 90 | 0.0 | 1.6 | 0.00 | 0.23 | 0.00 | 92 | 1025.1 |
| 20260905102635 | 12 | 90 | 0.0 | 3.2 | 0.00 | 0.25 | 0.00 | 92 | 1025.1 |
| 20260905102130 | 12 | 90 | 0.0 | 3.2 | 0.00 | 0.25 | 0.00 | 92 | 1025.2 |
| 20260905101630 | 12 | 90 | 0.0 | 0.0 | 0.00 | 0.25 | 0.00 | 92 | 1025.2 |
| 20260905101131 | 12 | 90 | 0.0 | 0.0 | 0.00 | 0.25 | 0.00 | 92 | 1025.2 |